Paynesville, MN

12:34 AM CDT on September 25, 2016 (GMT -0500)
Paynesville

Weather History for KPEX - April, 2014

Change the Weather History Date:

Tuesday, April 29, 2014

  Actual Average (KLJF) Record (KLJF)
Temperature  
Mean Temperature 40 °F -  
Max Temperature 45 °F 63 °F 84 °F (1965)
Min Temperature 35 °F 40 °F 19 °F (1958)
Degree Days  
Heating Degree Days 25    
Moisture  
Dew Point 33 °F    
Average Humidity 77    
Maximum Humidity 92    
Minimum Humidity 57    
Precipitation  
Precipitation 0.00 in - - ()
Sea Level Pressure  
Sea Level Pressure 29.76 in    
Wind  
Wind Speed 16 mph (NNE)    
Max Wind Speed 25 mph    
Max Gust Speed 36 mph    
Visibility 10 miles    
Events Rain    
Averages and records for this station are not official NWS values.
T = Trace of Precipitation, MM = Missing Value Source: NWS Daily Summary

Daily Weather History Graph

Daily Weather History Graph

Search for Another Location

Airport or City:

Trip Planner

Search our weather history database for the weather conditions in past years. The results will help you decide how hot, cold, wet, or windy it might be!

Date:

Astronomy

Apr. 29, 2014 Rise Set
Actual Time 6:10 AM CDT 8:22 PM CDT
Civil Twilight 5:38 AM CDT 8:55 PM CDT
Nautical Twilight 4:57 AM CDT 9:35 PM CDT
Astronomical Twilight 4:13 AM CDT 10:20 PM CDT
Moon 6:29 AM CDT (4/29) 9:04 PM CDT (4/29)
Length of Visible Light 15h 17m
Length of Day
14h 12m
New Moon, 0% of the Moon is Illuminated
Apr 29
New Moon
May 6
First Quarter
May 14
Full
May 21
Last Quarter
May 28
New

Hourly Weather History & Observations

Time (CDT) Temp. Windchill Dew Point Humidity Pressure Visibility Wind Dir Wind Speed Gust Speed Precip Events Conditions
12:12 AM 39.7 °F 30.9 °F 33.8 °F 79% 29.72 in 10.0 mi NE 17.3 mph 26.5 mph N/A   Overcast
12:32 AM 39.6 °F 32.1 °F 33.3 °F 78% 29.72 in 10.0 mi NE 12.7 mph 20.7 mph N/A   Overcast
12:52 AM 39.2 °F 30.8 °F 32.9 °F 78% 29.72 in 10.0 mi NE 15.0 mph 23.0 mph N/A   Overcast
1:12 AM 39.2 °F 30.5 °F 32.4 °F 76% 29.72 in 10.0 mi NE 16.1 mph 23.0 mph N/A   Overcast
1:32 AM 39.2 °F 31.6 °F 32.0 °F 75% 29.71 in 10.0 mi NE 12.7 mph 20.7 mph N/A   Overcast
1:52 AM 39.2 °F 29.6 °F 32.0 °F 75% 29.71 in 10.0 mi NE 19.6 mph 25.3 mph N/A   Overcast
2:12 AM 38.5 °F 28.9 °F 32.0 °F 78% 29.71 in 10.0 mi NE 18.4 mph 25.3 mph N/A   Overcast
2:32 AM 38.1 °F 29.5 °F 32.2 °F 79% 29.71 in 10.0 mi NE 15.0 mph 24.2 mph N/A   Overcast
2:52 AM 37.9 °F 29.2 °F 32.2 °F 80% 29.71 in 10.0 mi NE 15.0 mph 24.2 mph N/A   Overcast
3:12 AM 37.6 °F 28.8 °F 32.7 °F 83% 29.71 in 10.0 mi NE 15.0 mph 26.5 mph N/A   Overcast
3:32 AM 36.9 °F 28.7 °F 33.4 °F 87% 29.71 in 7.0 mi NE 12.7 mph 20.7 mph N/A Rain Light Rain
3:52 AM 37.8 °F 30.2 °F 32.2 °F 80% 29.71 in 10.0 mi NE 11.5 mph 18.4 mph N/A   Overcast
4:12 AM 38.3 °F 30.5 °F 32.0 °F 78% 29.70 in 10.0 mi NNE 12.7 mph - N/A   Overcast
4:32 AM 38.3 °F 30.1 °F 31.6 °F 77% 29.70 in 10.0 mi NNE 13.8 mph 20.7 mph N/A   Overcast
4:52 AM 38.5 °F 30.3 °F 31.5 °F 76% 29.71 in 10.0 mi NE 13.8 mph 23.0 mph N/A   Overcast
5:12 AM 38.7 °F 29.8 °F 31.1 °F 74% 29.70 in 10.0 mi NE 16.1 mph 21.9 mph N/A   Overcast
5:32 AM 38.5 °F 29.2 °F 31.6 °F 76% 29.71 in 10.0 mi NE 17.3 mph 25.3 mph N/A   Overcast
5:52 AM 38.1 °F 28.4 °F 32.0 °F 79% 29.71 in 10.0 mi NE 18.4 mph 25.3 mph N/A   Light Drizzle
6:12 AM 36.0 °F 26.0 °F 33.1 °F 89% 29.72 in 7.0 mi NE 17.3 mph 20.7 mph N/A Rain Light Rain
6:32 AM 36.1 °F 27.3 °F 33.6 °F 91% 29.72 in 10.0 mi NNE 13.8 mph 23.0 mph N/A Rain Light Rain
6:52 AM 35.6 °F 25.9 °F 33.4 °F 92% 29.72 in 10.0 mi NE 16.1 mph 26.5 mph N/A Rain Light Rain
7:12 AM 36.0 °F 28.0 °F 33.8 °F 92% 29.73 in 10.0 mi NE 11.5 mph 18.4 mph N/A   Overcast
7:32 AM 36.5 °F 27.8 °F 33.3 °F 88% 29.73 in 10.0 mi NNE 13.8 mph 21.9 mph N/A   Overcast
7:52 AM 36.5 °F 27.0 °F 31.8 °F 83% 29.73 in 10.0 mi NNE 16.1 mph 21.9 mph N/A   Overcast
8:12 AM 36.5 °F 27.0 °F 31.8 °F 83% 29.74 in 10.0 mi NNE 16.1 mph 23.0 mph N/A   Overcast
8:32 AM 36.9 °F 26.5 °F 30.9 °F 79% 29.74 in 10.0 mi NNE 19.6 mph 25.3 mph N/A   Overcast
8:52 AM 36.9 °F 27.8 °F 30.9 °F 79% 29.74 in 10.0 mi NNE 15.0 mph 21.9 mph N/A   Overcast
9:11 AM 36.5 °F 27.0 °F 31.6 °F 83% 29.74 in 10.0 mi NNE 16.1 mph 24.2 mph N/A   Light Drizzle
9:32 AM 36.7 °F 28.0 °F 31.5 °F 81% 29.74 in 10.0 mi NNE 13.8 mph 20.7 mph N/A   Overcast
9:52 AM 37.4 °F 29.3 °F 31.1 °F 78% 29.74 in 10.0 mi NNE 12.7 mph 21.9 mph N/A   Overcast
10:12 AM 37.2 °F 28.3 °F 31.5 °F 80% 29.74 in 10.0 mi NNE 15.0 mph 26.5 mph N/A Rain Light Rain
10:32 AM 37.2 °F 27.6 °F 31.8 °F 81% 29.75 in 7.0 mi NNE 17.3 mph 25.3 mph N/A Rain Light Rain
10:52 AM 37.9 °F 28.2 °F 32.2 °F 80% 29.74 in 10.0 mi NNE 18.4 mph 33.4 mph N/A Rain Light Rain
11:12 AM 39.2 °F 29.3 °F 31.8 °F 75% 29.74 in 10.0 mi NNE 20.7 mph 31.1 mph N/A   Overcast
11:32 AM 40.1 °F 29.9 °F 31.6 °F 72% 29.74 in 10.0 mi NNE 23.0 mph 28.8 mph N/A   Overcast
11:52 AM 40.6 °F 31.2 °F 30.9 °F 68% 29.74 in 10.0 mi NNE 20.7 mph 31.1 mph N/A   Overcast
12:12 PM 41.0 °F 31.6 °F 30.6 °F 66% 29.74 in 10.0 mi NNE 20.7 mph 28.8 mph N/A   Overcast
12:32 PM 41.0 °F 32.5 °F 30.9 °F 67% 29.75 in 10.0 mi NNE 17.3 mph 35.7 mph N/A   Overcast
12:52 PM 40.6 °F 32.7 °F 32.0 °F 71% 29.74 in 10.0 mi North 15.0 mph 25.3 mph N/A   Overcast
1:12 PM 41.0 °F 31.9 °F 30.9 °F 67% 29.74 in 10.0 mi NNE 19.6 mph 33.4 mph N/A   Overcast
1:32 PM 40.3 °F 30.4 °F 31.8 °F 72% 29.74 in 10.0 mi NNE 21.9 mph 28.8 mph N/A   Overcast
1:52 PM 40.3 °F 32.2 °F 32.0 °F 72% 29.75 in 10.0 mi NNE 15.0 mph 25.3 mph N/A   Overcast
2:12 PM 41.0 °F 32.2 °F 32.2 °F 71% 29.75 in 10.0 mi NNE 18.4 mph 28.8 mph N/A   Overcast
2:32 PM 42.3 °F 34.4 °F 32.4 °F 68% 29.75 in 10.0 mi NNE 16.1 mph 27.6 mph N/A   Overcast
2:52 PM 42.8 °F 33.5 °F 31.3 °F 64% 29.75 in 10.0 mi NNE 23.0 mph 32.2 mph N/A   Overcast
3:12 PM 43.7 °F 35.4 °F 31.1 °F 61% 29.75 in 10.0 mi NNE 19.6 mph 31.1 mph N/A   Overcast
3:32 PM 43.7 °F 35.0 °F 31.3 °F 62% 29.75 in 10.0 mi North 21.9 mph 27.6 mph N/A   Overcast
4:12 PM 44.8 °F 37.4 °F 31.5 °F 60% 29.76 in 10.0 mi NNE 17.3 mph 32.2 mph N/A   Mostly Cloudy
4:32 PM 45.0 °F 36.4 °F 31.3 °F 59% 29.76 in 10.0 mi NNE 23.0 mph 34.5 mph N/A   Mostly Cloudy
4:52 PM 45.3 °F 37.1 °F 30.7 °F 57% 29.77 in 10.0 mi NNE 21.9 mph 31.1 mph N/A   Overcast
5:12 PM 45.5 °F 37.3 °F 31.8 °F 59% 29.77 in 10.0 mi NNE 21.9 mph 35.7 mph N/A   Overcast
5:32 PM 45.0 °F 36.0 °F 31.8 °F 60% 29.78 in 10.0 mi NNE 25.3 mph 32.2 mph N/A   Overcast
5:52 PM 43.7 °F 35.7 °F 32.4 °F 64% 29.79 in 10.0 mi North 18.4 mph 26.5 mph N/A Rain Light Rain
6:12 PM 44.1 °F 37.1 °F 32.7 °F 64% 29.80 in 10.0 mi NNE 15.0 mph 25.3 mph N/A   Overcast
6:32 PM 43.7 °F 35.4 °F 33.1 °F 66% 29.81 in 10.0 mi NNE 19.6 mph 27.6 mph N/A   Overcast
6:52 PM 42.3 °F 34.4 °F 34.3 °F 74% 29.82 in 10.0 mi NNE 16.1 mph 29.9 mph N/A   Light Drizzle
7:12 PM 41.9 °F 35.4 °F 35.4 °F 78% 29.82 in 10.0 mi North 11.5 mph 23.0 mph N/A   Light Drizzle
7:32 PM 41.9 °F 34.0 °F 35.4 °F 78% 29.82 in 10.0 mi North 16.1 mph 23.0 mph N/A Rain Rain
7:52 PM 41.0 °F 31.6 °F 36.3 °F 83% 29.83 in 10.0 mi NNE 20.7 mph 26.5 mph N/A Rain Light Rain
8:12 PM 41.0 °F 33.5 °F 36.3 °F 83% 29.84 in 10.0 mi North 13.8 mph 29.9 mph N/A Rain Light Rain
8:32 PM 40.6 °F 32.3 °F 36.0 °F 83% 29.84 in 10.0 mi North 16.1 mph 23.0 mph N/A Rain Light Rain
8:52 PM 40.5 °F 32.8 °F 36.1 °F 85% 29.84 in 10.0 mi North 13.8 mph 21.9 mph N/A Rain Light Rain
9:12 PM 40.6 °F 33.4 °F 36.0 °F 83% 29.84 in 10.0 mi North 12.7 mph 20.7 mph N/A   Light Drizzle
9:32 PM 40.5 °F 32.8 °F 36.0 °F 84% 29.84 in 10.0 mi North 13.8 mph 19.6 mph N/A Rain Light Rain
9:52 PM 40.1 °F 32.7 °F 35.8 °F 85% 29.84 in 10.0 mi North 12.7 mph 23.0 mph N/A   Overcast
10:11 PM 39.7 °F 31.2 °F 35.2 °F 84% 29.84 in 10.0 mi North 16.1 mph 21.9 mph N/A   Light Drizzle
10:32 PM 39.7 °F 32.7 °F 35.4 °F 85% 29.84 in 10.0 mi North 11.5 mph 18.4 mph N/A   Light Drizzle
10:52 PM 39.6 °F 32.1 °F 35.1 °F 84% 29.83 in 10.0 mi North 12.7 mph 17.3 mph N/A   Light Drizzle
11:12 PM 39.4 °F 31.8 °F 35.1 °F 84% 29.83 in 10.0 mi North 12.7 mph 19.6 mph N/A Rain Rain
11:32 PM 39.2 °F 32.0 °F 34.7 °F 84% 29.82 in 10.0 mi North 11.5 mph 19.6 mph N/A   Light Drizzle
11:52 PM 38.3 °F 30.1 °F 34.7 °F 87% 29.82 in 10.0 mi North 13.8 mph 19.6 mph N/A Rain Light Rain